Grand Forks Air Force Base, ND

9:49 PM CDT on August 29, 2016 (GMT -0500)
Grand Forks International

Weather History for KGFK - December, 2013

Change the Weather History Date:

Monday, December 2, 2013

  Actual Average Record
Temperature  
Mean Temperature 25 °F 17 °F  
Max Temperature 27 °F 25 °F 53 °F (1982)
Min Temperature 22 °F 8 °F -22 °F (1978)
Degree Days  
Heating Degree Days 40 48  
Month to date heating degree days 84 96  
Since 1 July heating degree days 2195 2295  
Cooling Degree Days 0 0  
Month to date cooling degree days 0 0  
Year to date cooling degree days 487 379  
Moisture  
Dew Point 21 °F    
Average Humidity 87    
Maximum Humidity 92    
Minimum Humidity 81    
Precipitation  
Precipitation 0.07 in 0.02 in 0.24 in (1982)
Month to date precipitation 0.17 0.04  
Year to date precipitation 19.00 20.24  
Snow  
Snow 1.70 in 0.40 in 2.10 in (1958)
Month to date snowfall 2.8 0.7  
Since 1 July snowfall 4.4 9.9  
Snow Depth 0.00 in    
Sea Level Pressure  
Sea Level Pressure 29.71 in    
Wind  
Wind Speed 14 mph (NE)    
Max Wind Speed 22 mph    
Max Gust Speed 26 mph    
Visibility 5 miles    
Events Snow    
T = Trace of Precipitation, MM = Missing Value Source: NWS Daily Summary

Daily Weather History Graph

Daily Weather History Graph

Search for Another Location

Airport or City:

Trip Planner

Search our weather history database for the weather conditions in past years. The results will help you decide how hot, cold, wet, or windy it might be!

Date:

Astronomy

Dec. 02, 2013 Rise Set
Actual Time 7:58 AM CST 4:37 PM CST
Civil Twilight 7:23 AM CST 5:13 PM CST
Nautical Twilight 6:44 AM CST 5:52 PM CST
Astronomical Twilight 6:06 AM CST 6:29 PM CST
Moon 7:22 AM CST (12/2) 4:44 PM CST (12/2)
Length of Visible Light 9h 49m
Length of Day
8h 38m
Waning Crescent, 0% of the Moon is Illuminated
Dec 2
Waning Crescent
Dec 2
New
Dec 9
First Quarter
Dec 17
Full
Dec 25
Last Quarter

Hourly Weather History & Observations

Time (CST) Temp. Windchill Dew Point Humidity Pressure Visibility Wind Dir Wind Speed Gust Speed Precip Events Conditions
12:53 AM 21.9 °F 9.8 °F 19.0 °F 89% 29.83 in 10.0 mi East 12.7 mph - 0.00 in   Overcast
1:53 AM 21.9 °F 11.7 °F 19.0 °F 89% 29.81 in 10.0 mi East 9.2 mph - N/A   Overcast
2:53 AM 23.0 °F 11.7 °F 19.0 °F 85% 29.80 in 5.0 mi East 11.5 mph - 0.00 in Snow Light Snow
3:53 AM 23.0 °F 12.4 °F 19.0 °F 85% 29.77 in 8.0 mi East 10.4 mph - 0.00 in   Overcast
4:27 AM 23.0 °F 12.4 °F 19.4 °F 86% 29.71 in 5.0 mi East 10.4 mph - N/A   Overcast
4:53 AM 23.0 °F 11.7 °F 19.9 °F 88% 29.75 in 1.5 mi East 11.5 mph - 0.00 in Snow Light Snow
5:22 AM 23.0 °F 11.7 °F 19.4 °F 86% 29.70 in 2.5 mi East 11.5 mph - 0.01 in Snow Light Snow
5:29 AM 23.0 °F 12.4 °F 19.4 °F 86% 29.70 in 4.0 mi East 10.4 mph - 0.01 in Snow Light Snow
5:53 AM 23.0 °F 12.4 °F 19.9 °F 88% 29.73 in 10.0 mi East 10.4 mph - 0.01 in   Overcast
6:53 AM 21.9 °F 10.4 °F 19.0 °F 89% 29.73 in 9.0 mi East 11.5 mph - 0.01 in   Overcast
7:53 AM 23.0 °F 10.6 °F 19.0 °F 85% 29.72 in 10.0 mi East 13.8 mph - N/A   Overcast
8:53 AM 24.1 °F 13.7 °F 19.9 °F 84% 29.71 in 10.0 mi East 10.4 mph - N/A   Overcast
9:38 AM 24.8 °F 14.0 °F 19.4 °F 80% 29.66 in 4.0 mi ENE 11.5 mph - 0.00 in Snow Light Snow
9:45 AM 24.8 °F 12.9 °F 19.4 °F 80% 29.66 in 2.5 mi ENE 13.8 mph - 0.00 in Snow Light Snow
9:53 AM 24.1 °F 13.7 °F 19.9 °F 84% 29.71 in 1.8 mi ENE 10.4 mph - 0.00 in Snow Light Snow
10:45 AM 24.8 °F 13.4 °F 19.4 °F 80% 29.67 in 2.0 mi ENE 12.7 mph - 0.00 in Snow Light Snow
10:53 AM 24.1 °F 13.1 °F 19.9 °F 84% 29.71 in 2.0 mi ENE 11.5 mph - 0.00 in Snow Light Snow
11:36 AM 24.8 °F 14.0 °F 21.2 °F 86% 29.66 in 10.0 mi ENE 11.5 mph - 0.01 in   Overcast
11:53 AM 25.0 °F 14.2 °F 21.0 °F 85% 29.70 in 10.0 mi ENE 11.5 mph - 0.01 in   Overcast
12:26 PM 24.8 °F 12.9 °F 21.2 °F 86% 29.65 in 10.0 mi NE 13.8 mph - N/A   Overcast
12:53 PM 26.1 °F 14.5 °F 21.9 °F 84% 29.69 in 3.0 mi NE 13.8 mph - 0.00 in Snow Light Snow
12:58 PM 26.6 °F 14.7 °F 21.2 °F 80% 29.64 in 1.8 mi NE 15.0 mph - 0.00 in Snow Light Snow
1:32 PM 26.6 °F 15.7 °F 21.2 °F 80% 29.64 in 2.0 mi NE 12.7 mph - 0.00 in Snow Light Snow
1:53 PM 26.1 °F 14.5 °F 21.9 °F 84% 29.68 in 2.5 mi NE 13.8 mph - 0.00 in Snow Light Snow
2:40 PM 26.6 °F 14.7 °F 23.0 °F 86% 29.63 in 1.2 mi NNE 15.0 mph - 0.00 in Snow Light Snow
2:53 PM 26.1 °F 14.5 °F 23.0 °F 88% 29.67 in 1.0 mi NE 13.8 mph - 0.01 in Snow Light Snow
3:53 PM 27.0 °F 15.2 °F 23.0 °F 85% 29.68 in 1.5 mi NE 15.0 mph - 0.01 in Snow Light Snow
4:53 PM 27.0 °F 14.7 °F 23.0 °F 85% 29.70 in 7.0 mi NE 16.1 mph - 0.00 in Snow Light Snow
5:34 PM 26.6 °F 14.7 °F 23.0 °F 86% 29.67 in 2.5 mi NNE 15.0 mph - 0.00 in Snow Light Snow
5:53 PM 26.1 °F 14.5 °F 23.0 °F 88% 29.72 in 2.0 mi NNE 13.8 mph - 0.00 in Snow Light Snow
6:05 PM 26.6 °F 15.2 °F 23.0 °F 86% 29.68 in 2.0 mi NNE 13.8 mph - 0.01 in Snow Light Snow
6:53 PM 25.0 °F 12.2 °F 21.9 °F 88% 29.74 in 5.0 mi NNE 16.1 mph - 0.01 in Snow Light Snow
7:35 PM 24.8 °F 11.5 °F 21.2 °F 86% 29.71 in 2.5 mi NNE 17.3 mph - 0.00 in Snow Light Snow
7:53 PM 25.0 °F 11.7 °F 21.9 °F 88% 29.75 in 4.0 mi NNE 17.3 mph - 0.00 in Snow Light Snow
8:53 PM 24.1 °F 9.8 °F 21.0 °F 88% 29.76 in 3.0 mi NNE 19.6 mph - 0.01 in Snow Light Snow
9:53 PM 23.0 °F 8.3 °F 19.9 °F 88% 29.78 in 10.0 mi NNE 19.6 mph - 0.00 in   Overcast
10:22 PM 23.0 °F 8.3 °F 19.4 °F 86% 29.73 in 10.0 mi NNE 19.6 mph - N/A   Overcast
10:53 PM 23.0 °F 8.7 °F 19.0 °F 85% 29.78 in 10.0 mi NNE 18.4 mph 26.5 mph N/A   Overcast
11:53 PM 24.1 °F 11.0 °F 19.0 °F 81% 29.81 in 10.0 mi NNE 16.1 mph - N/A   Overcast